When you browse on this site, cookies collect data to enhance your experience and personalize the content and advertising you see.
Visit our Privacy Policy to learn more. By continuing to use the site, you agree to this use of cookies and data.
  • In Latvia
  • List of Countries
  • For 7 days
  • Water Temperature
  • Satellite Maps
  • Weather Map
  • Weather Widgets
  • user-avatar
    Login

    Hourly Weather Korçe

    Today, 18 July, Thursday

    Time Temperature Precipitation Wind Pressure Humidity
    00:00 +13°C° 0 mm 1 mps 664 mmHg 74%
    01:00 +13°C° 0 mm 1 mps 664 mmHg 74%
    02:00 +13°C° 0 mm 1 mps 664 mmHg 73%
    03:00 +13°C° 0 mm 1 mps 664 mmHg 73%
    04:00 +12°C° 0 mm 1 mps 664 mmHg 72%
    05:00 +14°C° 0 mm 1 mps 664 mmHg 67%
    06:00 +16°C° 0 mm 1 mps 665 mmHg 63%
    07:00 +19°C° 0 mm 1 mps 665 mmHg 58%
    08:00 +21°C° 0 mm 1 mps 666 mmHg 53%
    09:00 +22°C° 0 mm 1 mps 667 mmHg 47%
    10:00 +24°C° 0 mm 1 mps 667 mmHg 42%
    11:00 +24°C° 0 mm 1 mps 668 mmHg 41%
    12:00 +25°C° 0 mm 1 mps 668 mmHg 39%
    13:00 +26°C° 0 mm 1 mps 668 mmHg 38%
    14:00 +25°C° 0 mm 1 mps 667 mmHg 43%
    15:00 +24°C° 0 mm 2 mps 667 mmHg 48%
    16:00 +23°C° 0 mm 2 mps 667 mmHg 53%
    17:00 +20°C° 0.1 mm 2 mps 666 mmHg 62%
    18:00 +19°C° 0.1 mm 1 mps 666 mmHg 71%
    19:00 +18°C° 0.1 mm 1 mps 666 mmHg 80%
    20:00 +16°C° 0 mm 1 mps 666 mmHg 82%
    21:00 +15°C° 0 mm 1 mps 666 mmHg 83%
    22:00 +15°C° 0 mm 1 mps 666 mmHg 84%
    23:00 +14°C° 0 mm 0 mps 666 mmHg 83%

    Tomorrow, 19 July, Friday

    Time Temperature Precipitation Wind Pressure Humidity
    00:00 +13°C° 0 mm 0 mps 666 mmHg 83%
    01:00 +13°C° 0 mm 0 mps 666 mmHg 82%
    02:00 +13°C° 0 mm 0 mps 666 mmHg 82%
    03:00 +14°C° 0 mm 1 mps 666 mmHg 81%
    04:00 +14°C° 0 mm 1 mps 666 mmHg 81%
    05:00 +15°C° 0 mm 1 mps 667 mmHg 76%
    06:00 +18°C° 0 mm 1 mps 667 mmHg 71%
    07:00 +20°C° 0 mm 1 mps 668 mmHg 66%
    08:00 +22°C° 0 mm 1 mps 669 mmHg 58%
    09:00 +24°C° 0 mm 1 mps 669 mmHg 51%
    10:00 +25°C° 0 mm 1 mps 670 mmHg 44%
    11:00 +25°C° 0.1 mm 1 mps 670 mmHg 44%
    12:00 +25°C° 0.1 mm 1 mps 670 mmHg 45%
    13:00 +25°C° 0.1 mm 1 mps 670 mmHg 45%
    14:00 +24°C° 0.5 mm 1 mps 669 mmHg 52%
    15:00 +23°C° 0.5 mm 1 mps 669 mmHg 59%
    16:00 +21°C° 0.5 mm 2 mps 668 mmHg 66%
    17:00 +21°C° 0.7 mm 1 mps 668 mmHg 71%
    18:00 +19°C° 0.7 mm 1 mps 668 mmHg 76%
    19:00 +18°C° 0.7 mm 1 mps 668 mmHg 81%
    20:00 +18°C° 0 mm 1 mps 668 mmHg 81%
    21:00 +16°C° 0 mm 1 mps 668 mmHg 82%
    22:00 +15°C° 0 mm 1 mps 668 mmHg 82%
    23:00 +15°C° 0 mm 1 mps 668 mmHg 81%

    Day after tomorrow, 20 July, Saturday

    Time Temperature Precipitation Wind Pressure Humidity
    00:00 +15°C° 0 mm 1 mps 668 mmHg 81%
    01:00 +15°C° 0 mm 1 mps 668 mmHg 80%
    02:00 +15°C° 0 mm 1 mps 668 mmHg 80%
    03:00 +14°C° 0 mm 1 mps 668 mmHg 79%
    04:00 +14°C° 0 mm 1 mps 667 mmHg 79%
    05:00 +16°C° 0 mm 1 mps 668 mmHg 74%
    06:00 +19°C° 0 mm 1 mps 669 mmHg 70%
    07:00 +21°C° 0 mm 1 mps 670 mmHg 65%
    08:00 +22°C° 0 mm 1 mps 670 mmHg 58%
    09:00 +24°C° 0 mm 1 mps 671 mmHg 50%
    10:00 +26°C° 0 mm 1 mps 671 mmHg 42%
    11:00 +27°C° 0 mm 1 mps 671 mmHg 40%
    12:00 +27°C° 0 mm 1 mps 671 mmHg 39%
    13:00 +27°C° 0 mm 2 mps 672 mmHg 37%
    14:00 +26°C° 0 mm 2 mps 671 mmHg 43%
    15:00 +26°C° 0 mm 2 mps 671 mmHg 49%
    16:00 +25°C° 0 mm 3 mps 670 mmHg 55%
    17:00 +23°C° 0.1 mm 2 mps 670 mmHg 61%
    18:00 +20°C° 0.1 mm 2 mps 670 mmHg 67%
    19:00 +19°C° 0.1 mm 2 mps 670 mmHg 73%
    20:00 +19°C° 0 mm 1 mps 670 mmHg 74%
    21:00 +18°C° 0 mm 1 mps 670 mmHg 75%
    22:00 +18°C° 0 mm 1 mps 670 mmHg 75%
    23:00 +18°C° 0 mm 1 mps 670 mmHg 75%

    21 July, Sunday

    Time Temperature Precipitation Wind Pressure Humidity
    00:00 +16°C° 0 mm 1 mps 669 mmHg 74%
    01:00 +16°C° 0 mm 1 mps 669 mmHg 73%
    02:00 +16°C° 0 mm 1 mps 669 mmHg 73%
    03:00 +16°C° 0 mm 1 mps 669 mmHg 72%
    04:00 +16°C° 0 mm 1 mps 669 mmHg 72%
    05:00 +19°C° 0 mm 1 mps 670 mmHg 67%
    06:00 +21°C° 0 mm 1 mps 670 mmHg 63%
    07:00 +23°C° 0 mm 1 mps 671 mmHg 58%
    08:00 +24°C° 0 mm 1 mps 672 mmHg 53%
    09:00 +26°C° 0 mm 1 mps 672 mmHg 47%
    10:00 +28°C° 0 mm 1 mps 673 mmHg 42%
    11:00 +28°C° 0 mm 2 mps 673 mmHg 40%
    12:00 +29°C° 0 mm 2 mps 673 mmHg 38%
    13:00 +29°C° 0 mm 2 mps 673 mmHg 37%
    14:00 +28°C° 0 mm 2 mps 672 mmHg 40%
    15:00 +28°C° 0 mm 3 mps 672 mmHg 43%
    16:00 +27°C° 0 mm 3 mps 672 mmHg 46%
    17:00 +26°C° 0 mm 2 mps 671 mmHg 52%
    18:00 +24°C° 0 mm 2 mps 671 mmHg 58%
    19:00 +21°C° 0 mm 2 mps 670 mmHg 65%
    20:00 +21°C° 0 mm 1 mps 670 mmHg 66%
    21:00 +20°C° 0 mm 1 mps 670 mmHg 66%
    22:00 +19°C° 0 mm 1 mps 670 mmHg 67%
    23:00 +19°C° 0 mm 1 mps 670 mmHg 67%

    22 July, Monday

    Time Temperature Precipitation Wind Pressure Humidity
    00:00 +19°C° 0 mm 1 mps 670 mmHg 66%
    01:00 +19°C° 0 mm 1 mps 670 mmHg 65%
    02:00 +19°C° 0 mm 1 mps 670 mmHg 66%
    03:00 +18°C° 0 mm 1 mps 669 mmHg 66%
    04:00 +18°C° 0 mm 1 mps 669 mmHg 67%
    05:00 +20°C° 0 mm 1 mps 670 mmHg 64%
    06:00 +22°C° 0 mm 1 mps 670 mmHg 61%
    07:00 +24°C° 0 mm 1 mps 671 mmHg 57%
    08:00 +25°C° 0 mm 1 mps 671 mmHg 51%
    09:00 +27°C° 0 mm 2 mps 672 mmHg 45%
    10:00 +28°C° 0 mm 2 mps 672 mmHg 38%
    11:00 +29°C° 0 mm 2 mps 672 mmHg 37%
    12:00 +29°C° 0 mm 2 mps 672 mmHg 35%
    13:00 +30°C° 0 mm 2 mps 672 mmHg 34%
    14:00 +30°C° 0 mm 2 mps 671 mmHg 35%
    15:00 +30°C° 0 mm 3 mps 671 mmHg 36%
    16:00 +29°C° 0 mm 3 mps 671 mmHg 37%
    17:00 +27°C° 0 mm 2 mps 670 mmHg 44%
    18:00 +25°C° 0 mm 2 mps 669 mmHg 52%
    19:00 +22°C° 0 mm 1 mps 669 mmHg 60%
    20:00 +22°C° 0 mm 1 mps 669 mmHg 60%
    21:00 +21°C° 0 mm 1 mps 669 mmHg 61%
    22:00 +20°C° 0 mm 1 mps 669 mmHg 62%
    23:00 +20°C° 0 mm 1 mps 668 mmHg 61%

    23 July, Tuesday

    Time Temperature Precipitation Wind Pressure Humidity
    00:00 +20°C° 0 mm 1 mps 668 mmHg 61%
    01:00 +20°C° 0 mm 1 mps 668 mmHg 61%
    02:00 +19°C° 0 mm 1 mps 668 mmHg 62%
    03:00 +19°C° 0 mm 1 mps 667 mmHg 62%
    04:00 +19°C° 0 mm 1 mps 667 mmHg 63%
    05:00 +21°C° 0 mm 1 mps 668 mmHg 60%
    06:00 +23°C° 0 mm 1 mps 668 mmHg 56%
    07:00 +25°C° 0 mm 1 mps 669 mmHg 53%
    08:00 +26°C° 0 mm 1 mps 669 mmHg 48%
    09:00 +28°C° 0 mm 1 mps 670 mmHg 42%
    10:00 +30°C° 0 mm 1 mps 670 mmHg 37%
    11:00 +30°C° 0 mm 1 mps 670 mmHg 35%
    12:00 +30°C° 0 mm 2 mps 670 mmHg 34%
    13:00 +31°C° 0 mm 2 mps 669 mmHg 32%
    14:00 +30°C° 0 mm 2 mps 669 mmHg 36%
    15:00 +29°C° 0 mm 3 mps 668 mmHg 40%
    16:00 +29°C° 0 mm 3 mps 668 mmHg 44%
    17:00 +27°C° 0 mm 2 mps 668 mmHg 50%
    18:00 +25°C° 0 mm 2 mps 667 mmHg 57%
    19:00 +23°C° 0 mm 2 mps 667 mmHg 63%
    20:00 +21°C° 0 mm 2 mps 667 mmHg 65%
    21:00 +21°C° 0 mm 1 mps 667 mmHg 67%
    22:00 +21°C° 0 mm 1 mps 667 mmHg 69%
    23:00 +20°C° 0 mm 1 mps 666 mmHg 70%
    Show more